TimeMDT,TemperatureF,Dew PointF,Humidity,Sea Level PressureIn,VisibilityMPH,Wind Direction,Wind SpeedMPH,Gust SpeedMPH,PrecipitationIn,Events,Conditions,WindDirDegrees,DateUTC
12:53 AM,36.0,30.0,79,29.61,10.0,WSW,8.1,-,N/A,,Clear,240,2013-04-08 06:53:00
1:53 AM,37.0,30.9,79,29.60,10.0,SW,3.5,-,N/A,,Clear,220,2013-04-08 07:53:00
2:53 AM,34.0,28.9,82,29.60,10.0,West,5.8,-,N/A,,Clear,260,2013-04-08 08:53:00
3:53 AM,33.1,28.9,85,29.60,10.0,NW,6.9,-,N/A,,Clear,320,2013-04-08 09:53:00
4:53 AM,30.9,28.0,89,29.61,10.0,South,6.9,-,N/A,,Clear,190,2013-04-08 10:53:00
5:53 AM,32.0,28.9,88,29.64,10.0,WSW,9.2,-,N/A,,Clear,240,2013-04-08 11:53:00
6:53 AM,30.9,28.0,89,29.66,8.0,NNE,3.5,-,N/A,,Clear,20,2013-04-08 12:53:00
7:53 AM,36.0,32.0,86,29.69,8.0,Calm,Calm,-,N/A,,Clear,0,2013-04-08 13:53:00
8:53 AM,44.1,37.0,76,29.70,8.0,NE,5.8,-,N/A,,Clear,40,2013-04-08 14:53:00
9:41 AM,44.6,37.4,76,29.69,4.0,NNE,9.2,-,N/A,,Haze,20,2013-04-08 15:41:00
9:53 AM,44.1,37.9,79,29.72,4.0,NNE,11.5,-,N/A,,Haze,20,2013-04-08 15:53:00
10:53 AM,46.0,39.9,79,29.76,4.0,NNE,9.2,-,N/A,,Haze,30,2013-04-08 16:53:00
11:05 AM,46.4,39.2,76,29.72,5.0,North,9.2,-,N/A,,Haze,360,2013-04-08 17:05:00
11:12 AM,48.2,39.2,71,29.73,5.0,North,9.2,-,N/A,,Haze,350,2013-04-08 17:12:00
11:31 AM,48.2,39.2,71,29.73,5.0,North,12.7,-,N/A,,Haze,10,2013-04-08 17:31:00
11:53 AM,46.9,39.9,77,29.78,4.0,NNE,16.1,-,N/A,,Haze,30,2013-04-08 17:53:00
12:08 PM,46.4,39.2,76,29.73,5.0,NNE,16.1,-,N/A,,Haze,30,2013-04-08 18:08:00
12:53 PM,46.0,39.9,79,29.81,7.0,NE,16.1,21.9,N/A,,Overcast,40,2013-04-08 18:53:00
1:09 PM,44.6,39.2,81,29.76,4.0,NE,16.1,-,N/A,,Haze,40,2013-04-08 19:09:00
1:23 PM,44.6,41.0,87,29.73,1.8,NNE,25.3,28.8,0.00,Rain,Light Rain,30,2013-04-08 19:23:00
1:44 PM,39.2,37.4,93,29.77,1.0,NNE,20.7,38.0,0.00,Rain,Light Rain,20,2013-04-08 19:44:00
1:53 PM,39.0,37.0,93,29.85,1.8,NNE,23.0,28.8,0.00,Rain,Light Rain,20,2013-04-08 19:53:00
2:13 PM,37.4,35.6,93,29.79,2.5,NNE,25.3,31.1,0.00,Rain,Light Rain,30,2013-04-08 20:13:00
2:30 PM,37.4,35.6,93,29.79,3.0,NNE,24.2,33.4,0.00,,Overcast,30,2013-04-08 20:30:00
2:50 PM,37.4,33.8,87,29.80,2.0,NNE,26.5,36.8,0.00,,Overcast,30,2013-04-08 20:50:00
2:53 PM,37.0,34.0,89,29.87,1.8,NNE,28.8,35.7,0.00,,Overcast,30,2013-04-08 20:53:00
3:53 PM,35.1,33.1,92,29.89,1.2,NNE,27.6,35.7,0.00,Rain,Light Rain,20,2013-04-08 21:53:00
4:12 PM,35.6,33.8,93,29.81,2.0,NNE,26.5,34.5,0.00,Rain,Light Rain,20,2013-04-08 22:12:00
4:27 PM,35.6,33.8,93,29.82,1.8,NNE,23.0,31.1,0.00,Rain,Light Rain,30,2013-04-08 22:27:00
4:39 PM,33.8,32.0,93,29.83,2.0,NNE,18.4,34.5,0.00,Rain,Light Rain,20,2013-04-08 22:39:00
4:53 PM,33.1,30.9,92,29.93,2.5,NNE,25.3,32.2,0.00,,Overcast,20,2013-04-08 22:53:00
5:08 PM,33.8,30.2,87,29.84,1.5,NNE,25.3,35.7,0.00,Rain,Light Rain,20,2013-04-08 23:08:00
5:24 PM,32.0,30.2,93,29.84,0.5,NNE,24.2,35.7,0.00,Fog-Snow,Light Snow,20,2013-04-08 23:24:00
5:44 PM,32.0,30.2,93,29.85,0.2,NNE,17.3,26.5,0.00,Fog-Snow,Snow,20,2013-04-08 23:44:00
5:53 PM,30.9,30.0,96,29.95,0.2,NNE,18.4,26.5,0.00,Fog-Snow,Snow,30,2013-04-08 23:53:00
6:13 PM,32.0,30.2,93,29.85,0.5,NE,21.9,29.9,0.00,Fog-Snow,Snow,50,2013-04-09 00:13:00
6:24 PM,32.0,30.2,93,29.86,0.2,NE,19.6,31.1,0.00,Fog-Snow,Heavy Snow,50,2013-04-09 00:24:00
6:53 PM,28.9,28.0,96,29.99,0.2,NNE,31.1,39.1,0.00,Fog,Light Freezing Fog,20,2013-04-09 00:53:00
7:53 PM,25.0,24.1,96,30.04,0.2,NNE,24.2,33.4,N/A,Fog,Light Freezing Fog,20,2013-04-09 01:53:00
8:53 PM,23.0,21.0,92,30.08,0.2,NNE,23.0,33.4,N/A,Fog,Light Freezing Fog,20,2013-04-09 02:53:00
9:00 PM,23.0,21.2,93,29.98,0.2,NNE,21.9,32.2,N/A,Fog,Light Freezing Fog,20,2013-04-09 03:00:00
9:28 PM,21.2,19.4,93,29.99,0.2,NNE,24.2,33.4,N/A,Fog,Light Freezing Fog,20,2013-04-09 03:28:00
9:53 PM,21.0,19.0,92,30.07,0.2,NNE,25.3,32.2,N/A,Fog,Light Freezing Fog,30,2013-04-09 03:53:00
10:02 PM,21.2,19.4,93,29.97,0.5,NNE,19.6,31.1,N/A,Fog,Light Freezing Fog,20,2013-04-09 04:02:00
10:21 PM,21.2,19.4,93,29.99,0.5,NNE,21.9,29.9,N/A,Fog,Light Freezing Fog,20,2013-04-09 04:21:00
10:40 PM,19.4,17.6,93,30.00,0.2,NNE,25.3,38.0,N/A,Fog,Light Freezing Fog,20,2013-04-09 04:40:00
10:47 PM,19.4,17.6,93,30.00,0.5,NNE,23.0,35.7,N/A,Fog,Light Freezing Fog,20,2013-04-09 04:47:00
10:48 PM,19.9,18.0,92,30.09,0.5,NNE,23.0,35.7,N/A,Fog,Light Freezing Fog,20,2013-04-09 04:48:00
11:01 PM,19.4,17.6,93,30.01,0.2,NNE,21.9,36.8,N/A,Fog,Light Freezing Fog,30,2013-04-09 05:01:00
11:06 PM,19.4,17.6,93,30.01,0.5,NNE,23.0,33.4,N/A,Fog,Light Freezing Fog,30,2013-04-09 05:06:00
11:13 PM,19.4,17.6,93,30.01,0.5,NNE,27.6,42.6,N/A,Fog,Light Freezing Fog,20,2013-04-09 05:13:00
11:41 PM,19.4,15.8,86,30.02,0.2,NNE,26.5,40.3,N/A,Fog,Light Freezing Fog,30,2013-04-09 05:41:00
11:53 PM,18.0,16.0,92,30.14,0.2,NNE,29.9,39.1,N/A,Fog,Light Freezing Fog,20,2013-04-09 05:53:00